Lapse_Rate
7.3 7.3 7.2 7.2 7.1 7.0 6.8 6.6 6.5 6.4 6.4 6.3 6.1 6.0 5.8 5.7 5.6 5.6 5.7 5.7 5.7 5.8
7.4 7.2 7.1 7.0 6.9 6.8 6.8 6.7 6.6 6.5 6.5 6.4 6.3 6.3 6.2 6.1 6.0 6.0 5.9 5.7 5.6 5.7
7.2 6.9 6.8 6.8 6.8 6.7 6.7 6.6 6.5 6.4 6.4 6.3 6.3 6.2 6.1 6.1 6.1 5.9 6.0 5.8 5.8 5.8
7.2 7.0 6.9 6.9 6.8 6.7 6.5 6.5 6.4 6.4 6.4 6.4 6.4 6.3 6.0 5.8 5.9 5.7 5.7 5.6 5.7 6.0
7.1 7.1 7.0 6.9 6.8 6.7 6.6 6.6 6.5 6.5 6.6 6.5 6.4 6.1 5.8 5.8 5.8 5.7 5.8 5.7 5.7 5.8
6.9 6.9 6.9 7.0 6.9 6.8 6.8 6.6 6.7 6.8 6.7 6.3 6.1 5.9 5.7 5.6 5.7 5.7 5.7 5.5 5.5 5.4
6.6 6.7 6.8 6.9 7.0 6.9 6.7 6.8 7.0 6.8 6.3 6.1 5.9 5.8 5.7 5.7 5.8 5.8 5.7 5.4 5.1 5.1
6.4 6.5 6.4 6.5 6.7 6.6 6.6 6.7 6.7 6.3 6.2 6.1 5.8 5.7 5.6 5.7 5.7 5.6 5.3 5.0 4.8 4.6
6.1 6.2 6.3 6.4 6.5 6.5 6.6 6.4 6.3 6.0 6.2 5.8 5.6 5.4 5.3 5.2 5.5 5.2 5.1 5.0 5.0 4.8
5.9 6.1 6.1 6.1 6.2 6.1 6.0 6.1 6.0 6.0 5.9 5.7 5.3 5.1 4.9 4.9 4.7 4.7 4.9 4.9 5.0 5.0
5.9 5.9 5.9 5.8 5.7 5.6 5.6 5.9 5.8 5.7 5.5 5.4 5.0 4.9 4.8 4.7 4.8 5.0 4.9 4.6 4.7 4.6
6.0 5.9 5.8 5.5 5.2 5.1 5.3 5.6 5.6 5.6 5.4 5.4 5.1 4.8 4.6 4.8 5.0 5.0 5.0 5.0 4.1 4.0
5.8 5.5 5.3 5.1 5.1 5.0 5.3 5.4 5.7 5.5 5.4 5.4 5.0 4.7 4.5 4.9 5.0 5.2 4.8 3.9 3.8 4.5
5.4 4.8 4.4 4.3 4.6 5.0 5.3 5.6 5.6 5.4 5.2 5.0 5.0 4.5 4.3 4.3 4.7 4.8 3.9 3.5 3.9 4.7
Wind_Speed
8 5 4 4 4 4 3 3 2 4 4 5 5 5 5 3 4 5 4 6 5 5
7 7 6 5 4 3 3 3 6 6 6 5 4 3 3 3 5 5 4 5 5 4
6 6 6 5 5 4 4 4 5 3 2 3 3 4 4 4 5 6 5 5 6 7
5 5 5 5 3 4 4 3 2 1 3 4 5 6 5 6 7 8 8 8 9 10
4 4 4 3 2 3 3 1 2 3 4 5 6 6 6 7 8 9 10 10 9 11
2 2 2 2 2 4 3 1 3 4 5 6 6 6 6 7 9 8 8 9 8 12
6 4 3 3 0 5 4 4 3 4 6 6 6 6 7 6 6 8 9 10 11 12
7 7 6 6 6 5 4 3 4 5 6 5 5 6 7 9 10 11 12 12 12 13
7 7 7 6 6 5 5 5 5 6 6 6 6 11 14 13 11 12 12 14 14 13
7 7 6 6 5 5 6 6 6 6 7 7 7 13 14 15 10 11 13 14 14 14
8 8 7 6 6 6 5 6 5 6 7 6 8 13 13 12 11 12 13 14 15 15
7 6 7 6 7 6 6 7 5 5 7 8 9 10 14 12 12 12 15 13 14 14
8 7 8 8 8 7 7 7 6 6 6 9 7 12 13 10 10 12 10 14 14 20
7 8 7 7 7 7 7 5 6 6 7 6 9 13 18 18 11 8 11 10 11 12
Wind_Direction
90 90 93 101 108 110 116 128 105 67 46 22 17 13 12 358 340 341 329 309 303 295
102 106 115 113 108 104 89 69 49 50 48 34 23 9 349 317 306 308 289 283 275 277
117 116 112 102 97 95 84 84 83 66 33 327 302 292 290 285 282 282 279 276 273 283
115 117 113 112 114 111 121 127 118 336 312 303 294 286 272 266 265 260 262 267 270 272
112 113 109 115 124 146 155 181 263 284 298 293 287 277 268 266 270 263 267 258 257 266
58 134 171 191 180 182 195 288 332 318 294 279 268 266 262 257 265 261 262 263 264 277
336 307 270 234 85 39 57 44 341 287 272 275 277 280 275 272 272 274 275 269 266 270
1 12 34 44 63 43 23 330 279 278 291 293 292 292 292 293 292 288 284 276 269 262
14 11 15 21 17 359 331 306 309 303 297 298 299 289 291 296 296 289 285 285 278 267
8 0 349 341 340 338 326 316 303 311 307 298 286 288 289 297 306 299 289 283 280 278
359 345 338 330 328 325 310 303 307 305 313 308 306 307 326 321 318 304 287 281 279 281
335 324 321 315 321 310 297 302 300 293 308 310 312 327 335 338 322 301 295 298 295 287
325 330 320 313 314 307 303 292 308 310 311 316 325 331 331 332 326 305 310 307 302 297
338 325 312 319 311 329 328 328 345 329 328 335 340 331 328 334 326 311 310 306 306 307